RH
87 97 94 93 91 90 89 90 89 89 90 91 92 93 94 94 93 92 93 94 91 85 83 84 83 82 82 84 87 90 92 92 90 88 85 81 81 81 84 86 88 85 86
80 96 96 94 90 90 90 90 89 90 90 90 92 94 94 94 94 94 95 93 90 83 82 82 82 82 82 85 89 90 91 92 92 91 88 80 80 81 84 88 91 89 87
89 97 95 94 91 90 90 90 89 89 88 88 91 94 94 93 93 93 93 93 90 82 80 79 78 80 83 87 91 91 92 92 92 92 90 95 93 83 85 90 91 86 86
92 98 97 94 92 91 90 91 90 87 87 89 91 92 93 93 93 92 92 91 90 82 79 77 76 79 84 89 90 90 90 91 91 88 91 89 76 80 83 86 87 85 86
93 96 96 95 93 90 90 90 90 88 88 89 90 90 90 91 92 93 94 93 90 82 77 76 76 80 87 89 89 88 88 88 88 87 92 89 92 79 79 84 87 88 91
96 98 98 96 93 90 91 90 89 88 88 90 90 90 89 88 90 93 94 93 91 85 79 79 78 83 88 89 89 89 89 89 89 92 91 83 85 83 80 85 92 92 93
98 98 97 97 95 92 93 92 90 90 90 90 90 90 90 90 91 93 93 93 92 90 86 85 84 84 85 85 86 88 89 89 91 92 90 85 88 84 81 83 90 92 93
94 94 96 95 96 97 96 94 94 92 92 91 91 90 90 90 91 92 92 92 91 91 91 91 89 84 82 82 84 86 90 92 86 93 88 85 84 86 81 84 90 92 92
88 90 94 94 94 95 96 96 96 95 94 93 92 91 91 90 90 90 90 89 89 90 90 92 93 92 88 84 84 87 91 92 94 96 84 90 82 84 80 88 91 90 91
95 95 90 89 90 93 93 92 94 95 95 95 94 94 96 94 93 91 91 91 90 91 91 92 93 95 95 94 92 90 91 92 92 93 94 89 83 81 82 86 90 91 90
93 92 90 87 88 92 94 95 96 90 91 94 94 94 94 92 92 88 94 92 94 95 88 89 93 96 96 97 97 97 96 98 96 95 94 88 82 72 76 86 90 91 92
89 92 95 94 91 94 91 94 95 84 87 89 92 95 96 96 96 91 90 89 88 86 84 84 84 87 94 98 96 98 99 98 98 98 98 87 80 73 72 84 88 91 91
89 93 99 98 98 98 98 99 99 99 98 97 95 96 97 98 96 97 96 96 95 87 94 88 88 90 88 92 92 93 97 98 99 98 97 96 93 84 75 82 84 86 88
98 94 96 96 97 97 98 99 98 98 97 97 95 93 97 98 97 96 95 94 93 95 92 94 94 91 89 86 84 86 86 91 95 96 98 96 96 90 82 79 83 84 85
96 97 98 95 96 97 97 98 97 97 96 96 93 91 94 96 96 93 93 93 93 93 93 93 91 89 88 86 88 83 83 86 84 92 96 96 98 96 87 81 82 85 85
96 97 96 93 94 93 94 94 96 95 95 94 93 90 91 93 92 91 92 92 92 94 92 92 80 85 90 88 84 80 79 84 82 78 89 93 97 98 97 88 86 85 78
91 82 87 92 90 90 91 93 95 93 85 86 83 79 82 80 78 86 85 88 92 90 88 89 80 82 83 74 75 71 71 67 65 67 71 73 86 89 97 97 92 89 84
92 90 85 77 81 82 85 80 77 76 73 75 76 79 79 79 78 81 81 83 83 81 82 80 80 76 78 78 73 69 71 69 67 64 62 62 71 79 87 92 96 96 93
92 89 85 84 81 73 72 75 77 79 79 84 85 84 82 83 83 87 88 88 88 86 87 85 82 86 83 76 72 70 70 74 72 65 66 71 70 69 72 78 84 94 95
80 77 75 71 68 72 77 77 79 81 85 85 86 86 81 83 82 87 88 89 91 90 88 88 90 86 87 84 78 76 70 76 76 76 73 64 65 68 77 76 87 93 95
69 67 68 68 69 70 73 69 69 81 84 85 82 73 77 80 82 85 90 90 94 94 95 92 95 95 94 86 94 71 86 78 78 75 75 71 61 64 62 68 84 99 99
66 65 67 68 70 72 74 72 71 78 87 88 83 71 73 75 78 80 88 91 92 95 94 94 95 97 97 95 98 98 96 85 78 61 76 72 73 68 60 61 65 68 87
64 66 59 60 64 67 70 81 84 78 83 79 76 76 78 78 79 79 85 89 92 94 96 94 95 94 98 95 92 97 97 97 82 81 65 79 78 74 73 63 59 59 60
64 70 61 65 71 71 73 75 75 79 85 83 84 85 79 77 77 78 79 82 89 94 94 95 91 94 95 96 95 91 92 97 99 90 85 71 81 71 71 68 67 65 64
63 71 70 76 80 78 78 80 83 80 83 87 88 82 81 84 83 77 80 84 85 91 92 93 94 95 96 96 96 97 96 96 96 97 87 73 68 78 76 75 71 71 61
71 70 74 84 81 77 79 71 77 77 76 81 89 95 95 94 86 82 79 84 87 89 92 93 94 94 95 96 97 97 97 98 93 96 94 85 84 72 70 81 79 70 72
Wind_Speed
5 7 10 9 13 11 9 11 12 12 12 12 13 13 13 12 12 11 11 11 11 12 12 11 10 10 11 12 12 12 11 9 9 11 12 12 13 12 13 12 11 9 11
11 10 13 11 12 14 12 11 12 13 11 12 12 13 13 13 12 11 10 10 10 10 9 9 9 10 10 11 10 10 9 9 8 8 10 10 9 12 12 11 10 8 11
11 7 10 11 13 13 13 12 12 13 13 13 11 11 12 12 12 11 9 8 8 8 8 7 8 8 9 9 8 8 8 8 8 7 8 4 5 10 12 12 10 10 10
11 7 7 11 12 13 12 12 11 13 13 13 12 11 11 11 11 10 10 8 6 6 6 6 6 6 6 7 7 6 7 7 8 8 4 3 5 8 10 11 12 10 9
8 5 5 10 10 12 12 12 11 10 11 11 11 10 9 9 9 8 7 7 6 5 4 4 4 4 3 4 5 5 5 6 4 2 2 1 2 5 6 8 11 10 9
9 6 5 7 6 7 7 7 7 7 7 6 6 7 6 5 5 6 5 5 4 4 3 3 3 2 1 1 2 2 2 1 1 1 0 2 4 7 9 9 9 10 9
9 7 7 12 10 8 8 6 6 7 7 6 6 5 5 6 4 1 2 1 2 2 2 2 2 2 2 3 3 2 2 3 2 2 2 4 2 13 13 11 9 11 11
12 9 8 11 10 9 8 7 7 7 6 7 5 4 4 4 3 2 2 2 3 3 4 2 3 5 5 5 5 3 3 2 3 3 3 3 3 11 14 13 10 11 12
10 9 10 10 8 10 7 7 8 8 9 7 7 7 7 7 6 5 4 5 5 5 5 6 5 6 7 6 6 6 4 3 1 3 4 3 7 10 15 14 14 12 13
9 8 6 7 11 7 6 10 11 12 11 10 11 10 10 10 9 8 8 6 9 10 10 9 8 7 8 9 8 6 6 3 1 3 4 4 7 5 15 15 15 14 12
7 9 6 8 10 9 7 7 11 13 12 10 9 10 8 4 6 9 14 16 15 13 16 17 15 11 10 9 9 9 6 3 3 3 3 6 8 7 11 14 16 16 14
7 7 7 8 11 11 8 7 7 6 4 4 5 6 3 4 6 8 13 17 17 14 13 15 17 17 13 6 5 7 3 5 3 3 3 10 9 12 12 12 15 16 15
7 8 10 9 9 9 9 5 4 4 5 4 8 7 7 5 4 3 5 5 6 11 6 7 6 7 9 6 6 8 7 5 3 3 5 9 11 14 12 10 13 14 14
8 11 10 12 13 11 7 6 7 5 3 5 8 8 5 4 5 5 3 7 5 4 6 5 5 5 7 7 7 7 9 5 4 3 4 10 10 13 14 12 13 12 12
10 9 12 13 11 9 11 7 6 4 5 3 6 6 5 3 3 4 8 7 4 4 2 3 3 5 6 7 7 7 9 7 5 3 4 11 9 13 16 14 8 14 13
9 10 10 12 10 9 7 6 4 4 4 5 5 6 6 4 4 6 6 5 5 5 4 5 5 4 4 5 6 6 8 6 7 6 3 5 11 9 10 15 15 17 19
9 9 11 9 8 9 7 6 4 4 4 5 5 8 7 7 7 6 5 5 5 5 7 6 6 5 5 5 6 6 5 6 6 7 6 4 5 9 7 10 13 16 19
8 8 7 7 7 7 6 5 4 4 5 6 6 6 8 8 8 6 5 6 6 5 5 5 5 6 5 6 8 7 6 5 6 7 6 6 4 3 7 9 11 15 17
6 6 8 7 7 7 7 5 6 7 6 5 5 5 7 7 7 5 5 5 6 5 5 5 4 4 4 8 9 8 8 6 5 4 7 8 6 5 4 9 12 9 14
7 6 6 6 7 7 5 5 4 5 5 5 5 5 7 5 6 6 5 6 6 5 6 6 5 4 3 8 7 9 9 5 4 4 5 5 7 6 5 5 6 6 8
4 6 5 7 5 4 4 4 4 3 3 4 4 6 6 5 6 6 4 5 5 5 5 5 4 5 3 8 4 9 4 5 5 5 5 5 9 9 10 7 5 4 5
5 5 5 6 5 3 3 3 3 3 2 3 2 4 5 6 6 5 5 5 6 4 6 6 5 4 3 5 4 3 5 5 6 11 4 5 7 7 9 9 8 9 6
5 5 5 5 5 4 6 4 4 3 3 4 4 3 5 6 5 5 5 4 5 4 4 4 5 6 4 3 6 2 5 4 11 3 10 4 7 7 6 8 9 8 8
5 3 4 4 5 4 4 4 3 2 2 1 2 3 5 7 7 6 6 5 5 3 5 4 4 3 3 4 3 1 1 3 4 8 3 9 6 8 7 8 7 7 6
6 4 5 5 6 4 6 6 5 4 2 2 3 6 7 6 7 7 6 6 6 5 5 6 6 5 2 2 1 3 2 2 4 4 13 10 10 5 6 5 7 7 8
5 6 5 6 4 5 6 6 6 6 3 5 5 5 6 5 7 9 7 6 6 6 6 6 6 6 5 5 4 4 3 4 6 6 9 11 12 12 8 5 4 7 5
Wind_Direction
190 151 157 170 135 119 106 97 89 85 86 87 89 90 86 80 79 80 77 82 84 83 82 82 83 86 89 89 91 91 89 90 99 106 106 108 113 109 107 100 96 96 99
133 151 160 163 140 134 126 114 108 102 97 93 88 89 91 91 83 75 75 74 77 82 84 85 88 91 91 91 90 90 91 99 99 101 99 103 125 118 108 95 91 102 104
130 141 152 157 146 138 134 131 125 122 119 113 106 102 101 101 103 103 96 89 86 84 79 80 84 94 99 99 103 109 112 115 112 99 95 88 95 119 120 116 115 112 113
125 128 141 159 144 141 137 133 132 133 133 132 131 128 125 122 122 120 117 110 97 95 93 91 97 102 105 105 108 114 122 127 129 120 106 97 108 127 133 131 122 123 122
78 77 142 145 141 143 141 144 144 145 142 136 135 137 135 129 122 109 102 100 89 68 57 63 62 61 69 106 118 120 125 128 140 116 76 77 143 148 154 150 135 136 134
85 66 70 75 100 121 125 124 123 118 101 98 104 109 108 104 98 104 107 107 94 92 68 54 57 64 12 42 60 71 74 75 68 70 343 310 216 183 185 179 160 150 148
76 86 80 61 50 59 67 82 98 104 107 103 92 100 117 122 106 96 114 80 82 57 73 39 3 334 316 327 343 358 3 343 353 330 317 310 181 189 189 190 186 163 157
99 87 70 79 81 64 69 76 68 70 78 97 89 93 93 88 99 116 319 334 335 345 338 321 315 315 311 308 310 315 317 333 348 314 298 274 282 201 194 190 194 187 169
108 110 113 107 77 79 71 71 77 79 80 62 57 55 37 30 22 6 339 322 317 317 312 308 308 301 300 298 301 306 303 296 256 275 289 292 306 228 205 195 191 198 186
98 91 113 125 118 95 81 71 66 64 60 60 57 53 43 35 20 12 7 346 347 342 338 328 318 309 304 300 294 288 298 294 224 263 273 273 292 273 220 209 200 195 202
138 153 120 129 117 111 103 94 82 71 62 58 68 74 69 67 62 63 55 60 49 34 30 21 2 331 314 298 296 290 286 273 254 222 242 259 276 273 249 231 203 198 196
168 146 154 142 126 123 107 84 55 51 58 63 49 26 26 74 79 64 50 37 35 30 29 20 8 3 353 320 300 295 283 276 270 249 220 244 251 268 275 265 212 198 199
344 49 60 52 53 49 79 71 96 60 347 28 39 32 356 352 2 66 99 69 25 14 1 12 22 22 343 348 346 341 328 303 305 292 293 251 250 266 268 287 232 208 206
55 60 64 62 54 58 91 84 61 59 47 16 35 35 2 6 350 6 18 92 47 27 355 352 4 2 339 341 345 339 322 321 336 327 300 274 262 263 260 270 271 227 211
60 45 52 57 61 49 51 51 46 60 69 27 52 37 30 340 2 6 30 19 38 54 9 320 23 9 337 335 315 320 301 308 323 318 330 303 280 253 248 239 236 212 213
67 56 55 64 67 77 74 78 79 73 46 46 55 55 26 18 32 35 34 29 19 13 358 3 11 360 344 325 313 307 302 310 309 311 298 301 289 287 264 255 237 232 240
56 59 59 69 76 88 96 88 73 73 66 63 54 50 45 38 34 33 27 20 11 10 10 6 360 343 352 329 314 311 308 312 308 309 304 293 317 318 278 245 250 238 244
54 59 69 78 80 77 80 82 78 75 71 63 56 46 39 37 32 28 24 18 6 8 8 3 360 350 353 345 330 319 311 307 311 309 305 306 295 282 302 286 235 249 250
81 79 83 82 83 89 77 66 62 57 56 46 47 42 34 34 29 34 24 10 4 6 6 355 350 356 343 349 330 321 314 312 316 329 326 326 314 301 282 285 287 250 252
78 92 98 94 95 92 82 74 56 53 45 40 34 33 32 26 28 32 23 16 10 9 2 356 347 344 330 343 324 317 314 315 334 19 354 355 349 345 332 300 289 281 263
92 96 104 111 112 101 71 70 46 53 31 42 36 32 28 23 27 33 25 17 12 16 351 353 327 345 340 351 339 338 317 323 21 354 345 351 1 8 2 350 340 317 323
140 135 122 116 125 101 91 80 101 106 67 73 15 29 23 17 17 16 16 9 12 359 0 1 9 341 334 1 348 312 339 332 345 334 348 355 353 358 357 355 1 356 351
163 160 145 132 121 109 99 98 71 59 36 22 3 355 352 1 2 12 5 7 1 9 354 345 351 6 337 327 352 337 346 331 327 321 330 342 358 348 336 347 344 346 353
190 181 126 106 99 84 111 96 97 108 84 331 333 333 347 4 353 354 356 1 356 349 347 329 338 329 354 329 341 16 272 279 315 316 341 327 343 330 339 330 334 329 339
153 156 110 111 101 107 98 98 93 79 56 2 3 9 359 347 356 357 13 1 353 353 341 342 339 336 307 291 287 303 296 271 265 273 312 319 312 310 312 315 316 309 321
115 112 119 131 110 83 85 82 94 91 62 37 15 14 6 2 11 15 4 4 359 349 346 334 320 320 315 302 290 274 256 276 293 290 295 301 298 309 305 286 295 300 305